Location: Black River Observatory
(43.1000°N, 82.6200°W)
Time: 07:58:15
(UTC-04:00)

Daily predictions for brighter satellites

Satellite Brightness Start Highest point End
(mag) Time Altitude Azimuth Time Altitude Azimuth Time Altitude Azimuth
NOSS 3-4 (A) 3.9 20:28:29 10° NW 20:35:31 77° NE 20:42:56 10° SE
NOSS 3-4 (C) 3.9 20:28:36 10° NW 20:35:38 76° NE 20:43:03 10° SE
Meteor 2-15 4.4 20:38:32 10° N 20:44:36 69° E 20:50:37 10° SSE
Cosmos 2208 Rocket 4.2 20:40:00 10° S 20:45:11 56° ESE 20:50:29 10° NNE
CZ-2D R/B 3.4 20:43:41 10° SSE 20:47:28 57° ENE 20:51:18 10° N
Cosmos 1025 Rocket 3.8 20:43:14 10° NNW 20:47:32 58° W 20:51:46 10° S
Cosmos 1461 2.9 20:43:41 10° NNW 20:47:46 63° NE 20:51:41 10° SE
FengYun 1-2 T 4.4 20:42:43 10° SSE 20:48:23 85° WSW 20:54:01 10° NNW
H-2A R/B 4.0 20:47:32 10° E 20:49:13 12° ENE 20:50:55 10° NE
OAO 2 Rocket 4.5 20:45:32 10° SW 20:49:41 26° SSE 20:53:55 10° ESE
Meteor 2-14 Rocket 4.4 20:44:02 10° S 20:50:08 74° E 20:56:18 10° NNE
Meteor 2-15 Rocket 4.5 20:44:16 10° N 20:50:19 65° E 20:56:19 10° SSE
Cosmos 1892 Rocket 3.7 20:45:57 10° N 20:50:28 88° W 20:54:58 10° S
Cosmos 2123 Rocket 4.0 20:44:22 10° N 20:50:31 63° E 20:56:37 10° SSE
Cosmos 1626 Rocket 4.3 20:46:45 10° N 20:50:45 33° ENE 20:54:42 10° SE
Spot 2 Rocket 4.4 20:46:01 10° S 20:50:59 54° W 20:55:59 10° NNW
Cosmos 1939 Rocket 4.4 20:51:07 10° ESE 20:54:11 20° ENE 20:57:16 10° NNE
Cosmos 1455 Rocket 3.0 20:51:51 10° S 20:56:08 67° E 21:00:28 10° NNE
FENGYUN 3A 3.6 20:51:00 10° SSE 20:56:20 79° ENE 21:01:42 10° N
Cosmos 2227 Rocket 2.2 20:51:50 10° NNW 20:57:31 73° ENE 21:03:09 10° SSE
NOSS 7 (E) 4.3 20:54:06 10° SSW 20:57:32 70° SE 21:00:55 10° NE
Cosmos 1602 Rocket 4.1 20:55:25 10° N 20:59:39 41° ENE 21:03:50 10° SSE
Cosmos 1656 4.3 20:55:24 10° SSE 21:00:23 33° ESE 21:05:19 10° NE
Cosmos 1570 Rocket 4.0 20:55:43 10° SSW 21:01:00 84° ESE 21:06:19 10° NNE
Envisat 4.1 20:57:19 10° ESE 21:01:33 27° ENE 21:05:47 10° N
CZ-4B DEB 3.6 20:59:49 10° S 21:03:02 55° W 21:06:17 10° NNW
Cosmos 1346 Rocket 2.8 20:59:19 10° N 21:03:16 88° W 21:07:15 10° S
ATLAS CENTAUR R/B 4.4 21:00:27 10° W 21:04:25 23° NW 21:08:20 10° NNE
Cosmos 1500 4.3 21:03:00 10° SE 21:06:02 23° E 21:09:05 10° NE
Iridium 4 Rocket 3.7 21:04:09 10° N 21:09:04 44° E 21:13:33 10° SSE
Meteor 1-5 Rocket 4.3 21:05:14 10° SSW 21:10:33 81° W 21:16:05 10° N
ALOS 2.6 21:06:36 10° S 21:11:14 71° WSW 21:15:56 10° NNW
Cosmos 2082 3.7 21:06:07 10° NNW 21:11:47 87° ENE 21:17:24 10° SSE
Cosmos 2084 4.1 21:08:02 10° NNW 21:11:50 39° NE 21:14:48 16° ESE
Cosmos 2297 Rocket 2.2 21:07:20 10° NNW 21:13:00 70° ENE 21:18:31 11° SSE
Cosmos 220 Rocket 4.0 21:13:06 10° NNW 21:17:18 61° ENE 21:20:50 14° SSE
Cosmos 1340 4.5 21:15:07 10° NNE 21:17:29 16° ENE 21:18:25 15° E
Cosmos 2150 Rocket 4.5 21:12:51 10° N 21:17:45 42° ENE 21:21:30 16° SE
RESURS DK-1 3.6 21:15:42 10° N 21:19:15 26° NE 21:21:23 17° E
Resurs 01 Rocket 4.0 21:16:55 10° SSW 21:20:34 25° W 21:24:15 10° NW
Cosmos 1934 Rocket 4.4 21:14:29 10° SSW 21:20:35 69° W 21:26:49 10° N
USA 186 2.5 21:23:01 10° S 21:26:11 50° W 21:29:08 10° NNW
DELTA 2 R/B (1) 3.9 21:21:56 10° W 21:27:21 54° SSW 21:31:01 20° ESE
YAOGAN 6 4.4 21:26:58 16° E 21:27:38 17° ENE 21:30:03 10° NNE
Cosmos 1515 3.7 21:24:10 10° N 21:27:59 58° E 21:30:46 17° SSE
BREEZE-M DEB (TANK) 4.4 21:10:22 10° SW 21:28:03 57° SSE 21:32:41 12° ENE
Cosmos 1447 Rocket 4.5 21:24:13 10° N 21:30:33 74° E 21:36:53 10° SSE
ERS-1 Rocket 3.0 21:27:56 13° SSE 21:32:23 66° ENE 21:37:23 10° N
Cosmos 1898 Rocket 3.5 21:34:37 10° NNW 21:39:55 70° ENE 21:43:26 21° SSE
OTV 4 2.4 21:38:41 10° WSW 21:40:45 17° SSW 21:41:08 17° S
Cosmos 1743 3.4 21:40:01 29° ESE 21:41:01 34° E 21:44:35 10° NNE
BREEZE-M DEB (TANK) 4.5 21:39:09 10° SW 21:43:36 84° SSE 22:01:31 10° ENE
Cosmos 1763 Rocket 4.3 21:43:24 26° ESE 21:44:22 28° E 21:48:38 10° NE
Lacrosse 5 2.1 21:40:32 10° NW 21:45:34 60° NE 21:48:07 28° ESE
Cosmos 1066 Rocket 4.2 21:40:41 10° N 21:46:22 75° E 21:50:49 17° SSE
Tiangong 1 0.9 21:44:10 10° W 21:47:17 83° S 21:47:55 52° ESE
Cosmos 2016 Rocket 4.3 21:47:10 21° SSE 21:50:46 42° E 21:56:32 10° NNE
Cosmos 1697 Rocket 2.6 21:45:50 10° S 21:51:25 65° ESE 21:57:01 10° NNE
SPOT 5 3.2 21:50:57 29° SE 21:53:09 49° ENE 21:57:50 10° N
Cosmos 1975 3.7 21:51:35 10° SSW 21:55:35 52° W 21:59:37 10° N
Cosmos 468 Rocket 3.8 21:53:09 10° SSW 21:58:16 79° ESE 22:03:25 10° NNE
SL-16 R/B 4.2 22:00:58 12° ENE 22:00:58 12° ENE 22:01:44 10° ENE
Cosmos 1726 Rocket 4.1 21:58:23 35° E 21:58:34 35° E 22:02:35 10° NNE
SL-24 R/B - RUBIN 2 4.4 21:55:25 10° SW 22:01:19 84° WNW 22:07:55 10° NNE
Cosmos 2173 Rocket 3.9 21:56:58 10° S 22:03:18 73° E 22:09:38 10° NNE
Lacrosse 5 rocket 2.5 22:01:08 10° WNW 22:04:23 29° SW 22:05:31 24° SSW
USA 215 4.1 22:00:24 19° E 22:04:40 42° NNE 22:10:44 10° NW
Cosmos 1842 4.3 22:01:13 10° NNE 22:04:21 30° ENE 22:04:21 30° ENE
Cosmos 841 Rocket 3.9 22:05:14 37° ESE 22:05:51 39° ESE 22:10:41 10° NE
Cosmos 1814 Rocket 3.9 22:02:15 10° SSW 22:07:35 80° ESE 22:12:55 10° NNE
PSLV R/B 4.5 22:08:36 29° NNE 22:08:36 29° NNE 22:10:34 10° N
Cosmos 972 Rocket 4.4 22:02:15 10° NNW 22:08:11 90° W 22:12:03 26° SSE
Cosmos 1825 Rocket 3.4 22:06:46 10° N 22:11:14 79° E 22:12:29 46° SSE
ARGOS 3.6 22:12:12 37° ESE 22:13:27 43° ENE 22:18:31 10° N
Cosmos 1980 Rocket 2.1 22:08:26 10° S 22:14:00 61° ESE 22:19:37 10° NNE
Cosmos 2100 Rocket 4.0 22:09:03 10° S 22:15:21 84° W 22:21:37 10° N
Cosmos 2061 Rocket 4.0 22:13:01 10° S 22:19:21 86° W 22:25:39 10° N
Cosmos 1953 Rocket 3.5 22:16:23 10° N 22:20:51 74° E 22:21:30 61° SE
Tsikada Rocket 4.3 22:15:30 10° N 22:21:46 51° ENE 22:23:28 41° ESE
H-2A R/B 2.2 22:23:38 45° SSW 22:24:41 65° WSW 22:28:49 10° NNW
Terra 3.3 22:28:05 23° ENE 22:28:05 23° ENE 22:31:29 10° NNE
Cosmos 1939 Rocket 4.3 22:26:46 21° SSW 22:28:52 36° W 22:32:45 10° NNW
Milstar 3 Cent rocket 4.4 22:11:41 10° WSW 22:29:39 40° SSW 22:34:14 30° SSE
MetOp-B 4.1 22:28:30 45° SSE 22:30:16 87° WSW 22:35:39 10° NNW
Cosmos 1666 3.7 22:31:54 36° NNE 22:31:54 36° NNE 22:34:18 10° NNE
OAO 2 Rocket 4.4 22:29:19 10° WSW 22:33:00 31° SSW 22:33:00 31° SSW
deb Chang Zheng 4 4.2 22:32:34 10° N 22:36:58 58° WNW 22:39:28 24° SW
ASTEX 1 3.4 22:32:52 10° N 22:37:54 83° W 22:39:19 48° SSW
Cosmos 1758 Rocket 3.4 22:35:24 10° N 22:39:47 82° W 22:39:54 80° SW
Cosmos 2228 4.0 22:41:50 35° NE 22:41:50 35° NE 22:44:32 10° NNE
Envisat 4.2 22:37:26 20° SSW 22:40:22 38° W 22:45:07 10° NNW
Meteor 1-21 4.4 22:34:57 10° NNW 22:40:41 70° W 22:42:53 39° SSW
Cosmos 2263 Rocket 3.3 22:36:34 10° N 22:41:22 29° NE 22:41:51 28° ENE
Cosmos 1937 Rocket 4.4 22:39:42 10° NNW 22:44:42 44° WSW 22:46:32 32° SSW
Cosmos 2322 Rocket 3.2 22:48:05 32° ENE 22:48:05 32° ENE 22:51:26 10° NE
H-2A R/B 2.5 22:48:51 43° NE 22:48:51 43° NE 22:53:08 10° N
Cosmos 1725 Rocket 3.8 22:47:52 51° S 22:49:33 81° E 22:55:49 10° N
Cosmos 1340 4.0 22:49:52 10° NNW 22:53:18 36° W 22:53:18 36° W
Cosmos 2360 4.1 22:53:09 45° SSW 22:55:00 89° W 23:00:47 10° NNE
Meteor 2-9 Rocket 4.1 22:56:00 65° SSW 22:56:51 86° W 23:02:18 10° N
RESURS DK-1 3.9 22:53:40 10° NW 22:57:17 29° WSW 22:57:19 29° WSW
YAOGAN 6 4.2 23:01:27 32° WNW 23:01:27 32° WNW 23:04:22 10° NNW
Cosmos 2098 Rocket 4.1 22:58:17 34° SSW 23:01:32 75° W 23:07:26 10° N
Cosmos 2227 4.4 22:56:15 10° NNW 23:01:55 62° WSW 23:02:41 56° SW
CZ-4B R/B 3.5 22:57:56 10° NNE 23:02:02 66° NNE 23:02:02 66° NNE
Cosmos 2058 Rocket 3.5 23:03:28 59° WNW 23:03:28 59° WNW 23:07:51 10° N
Meteor 2-17 Rocket 4.3 23:04:12 68° E 23:04:12 68° E 23:10:10 10° NNE
SPOT 1/Viking Rocket 3.8 23:07:00 57° SW 23:07:27 60° W 23:12:37 10° NNW
Cosmos 2233 Rocket 3.8 23:15:54 81° ESE 23:15:56 81° E 23:22:12 10° N
Lacrosse 5 3.6 23:24:05 10° WNW 23:27:19 24° WSW 23:27:19 24° WSW
Cosmos 1125 Rocket 4.0 23:23:04 10° NNW 23:27:33 56° WNW 23:27:33 56° WNW
SL-16 R/B 2.6 23:42:48 58° N 23:42:48 58° N 23:47:28 10° NNE
USA 215 3.2 23:47:44 74° WSW 23:47:44 74° WSW 23:53:58 10° NW
Cosmos 1844 Rocket 4.3 23:49:37 10° N 23:53:29 25° NE 23:53:29 25° NE
